Time,TemperatureF,DewpointF,PressureIn,WindDirection,WindDirectionDegrees,WindSpeedMPH,WindSpeedGustMPH,Humidity,HourlyPrecipIn,Conditions,Clouds,dailyrainin,SoftwareType,DateUTC
2013-04-17 00:09:00,54.5,53.0,30.29,SW,225,0.0,1.0,96,0.00,,,0.00,weatherlink.com 1.10,2013-04-17 04:09:00,
2013-04-17 00:24:00,53.9,53.0,30.29,SW,224,0.0,0.0,96,0.00,,,0.00,weatherlink.com 1.10,2013-04-17 04:24:00,
2013-04-17 00:40:00,53.6,53.0,30.29,SW,225,0.0,1.0,97,0.00,,,0.00,weatherlink.com 1.10,2013-04-17 04:40:00,
2013-04-17 00:55:00,53.7,53.0,30.29,SW,225,0.0,0.0,97,0.00,,,0.00,weatherlink.com 1.10,2013-04-17 04:55:00,
2013-04-17 01:10:00,53.7,53.0,30.29,SW,225,0.0,0.0,97,0.00,,,0.00,weatherlink.com 1.10,2013-04-17 05:10:00,
2013-04-17 01:25:00,53.4,53.0,30.28,SW,225,0.0,0.0,97,0.00,,,0.00,weatherlink.com 1.10,2013-04-17 05:25:00,
2013-04-17 01:40:00,53.1,52.0,30.27,SW,225,0.0,0.0,97,0.00,,,0.00,weatherlink.com 1.10,2013-04-17 05:40:00,
2013-04-17 01:55:00,53.0,52.0,30.27,SW,226,0.0,0.0,97,0.00,,,0.00,weatherlink.com 1.10,2013-04-17 05:55:00,
2013-04-17 02:10:00,53.0,53.0,30.28,SW,225,0.0,0.0,98,0.00,,,0.00,weatherlink.com 1.10,2013-04-17 06:10:00,
2013-04-17 02:25:00,53.1,53.0,30.27,SW,226,0.0,1.0,98,0.00,,,0.00,weatherlink.com 1.10,2013-04-17 06:25:00,
2013-04-17 02:40:00,52.9,52.0,30.27,SW,225,0.0,0.0,98,0.00,,,0.00,weatherlink.com 1.10,2013-04-17 06:40:00,
2013-04-17 02:55:00,52.7,52.0,30.27,SW,225,0.0,0.0,98,0.00,,,0.00,weatherlink.com 1.10,2013-04-17 06:55:00,
2013-04-17 03:10:00,52.9,52.0,30.28,SW,225,0.0,0.0,98,0.00,,,0.00,weatherlink.com 1.10,2013-04-17 07:10:00,
2013-04-17 03:25:00,52.9,52.0,30.28,SW,225,0.0,0.0,98,0.00,,,0.00,weatherlink.com 1.10,2013-04-17 07:25:00,
2013-04-17 03:40:00,52.5,52.0,30.28,SW,225,0.0,0.0,98,0.00,,,0.00,weatherlink.com 1.10,2013-04-17 07:40:00,
2013-04-17 03:55:00,52.2,52.0,30.28,SW,225,0.0,0.0,98,0.00,,,0.00,weatherlink.com 1.10,2013-04-17 07:55:00,
2013-04-17 04:10:00,52.1,52.0,30.28,SW,225,0.0,1.0,98,0.00,,,0.00,weatherlink.com 1.10,2013-04-17 08:10:00,
2013-04-17 04:25:00,51.9,51.0,30.27,North,349,1.0,2.0,98,0.00,,,0.00,weatherlink.com 1.10,2013-04-17 08:25:00,
2013-04-17 04:40:00,51.9,51.0,30.28,NNW,345,0.0,0.0,98,0.01,,,0.01,weatherlink.com 1.10,2013-04-17 08:40:00,
2013-04-17 04:55:00,52.1,52.0,30.29,SE,128,0.0,0.0,99,0.04,,,0.04,weatherlink.com 1.10,2013-04-17 08:55:00,
2013-04-17 05:10:00,52.6,52.0,30.28,East,96,0.0,1.0,99,0.04,,,0.04,weatherlink.com 1.10,2013-04-17 09:10:00,
2013-04-17 05:25:00,53.0,53.0,30.28,NNW,329,0.0,1.0,99,0.04,,,0.04,weatherlink.com 1.10,2013-04-17 09:25:00,
2013-04-17 05:40:00,53.0,53.0,30.27,NNW,329,0.0,0.0,98,0.02,,,0.04,weatherlink.com 1.10,2013-04-17 09:40:00,
2013-04-17 05:55:00,52.5,52.0,30.28,NNW,329,0.0,0.0,98,0.00,,,0.04,weatherlink.com 1.10,2013-04-17 09:55:00,
2013-04-17 06:10:00,52.1,52.0,30.28,NNW,328,0.0,1.0,98,0.00,,,0.04,weatherlink.com 1.10,2013-04-17 10:10:00,
2013-04-17 06:25:00,51.9,51.0,30.28,NNW,329,0.0,1.0,98,0.00,,,0.04,weatherlink.com 1.10,2013-04-17 10:25:00,
2013-04-17 06:40:00,51.7,52.0,30.29,NNW,328,0.0,1.0,99,0.00,,,0.04,weatherlink.com 1.10,2013-04-17 10:40:00,
2013-04-17 06:55:00,51.4,51.0,30.29,NNW,329,0.0,0.0,99,0.00,,,0.04,weatherlink.com 1.10,2013-04-17 10:55:00,
2013-04-17 07:10:00,51.2,51.0,30.29,NNW,328,0.0,0.0,99,0.00,,,0.04,weatherlink.com 1.10,2013-04-17 11:10:00,
2013-04-17 07:25:00,51.0,51.0,30.30,NNW,328,0.0,0.0,99,0.00,,,0.04,weatherlink.com 1.10,2013-04-17 11:25:00,
2013-04-17 07:40:00,51.2,51.0,30.31,NNW,328,0.0,0.0,99,0.00,,,0.04,weatherlink.com 1.10,2013-04-17 11:40:00,
2013-04-17 07:55:00,52.3,52.0,30.31,NNW,329,0.0,0.0,99,0.00,,,0.04,weatherlink.com 1.10,2013-04-17 11:55:00,
2013-04-17 08:10:00,53.1,53.0,30.30,NW,312,2.0,3.0,98,0.00,,,0.04,weatherlink.com 1.10,2013-04-17 12:10:00,
2013-04-17 08:25:00,55.8,55.0,30.30,North,10,0.0,1.0,96,0.00,,,0.04,weatherlink.com 1.10,2013-04-17 12:25:00,
2013-04-17 08:40:00,57.8,56.0,30.30,NNE,27,0.0,1.0,94,0.00,,,0.04,weatherlink.com 1.10,2013-04-17 12:40:00,
2013-04-17 08:55:00,60.7,58.0,30.31,NNE,32,0.0,1.0,91,0.00,,,0.04,weatherlink.com 1.10,2013-04-17 12:55:00,
2013-04-17 09:10:00,64.1,59.0,30.30,ESE,121,0.0,1.0,84,0.00,,,0.04,weatherlink.com 1.10,2013-04-17 13:10:00,
2013-04-17 09:25:00,67.0,60.0,30.30,SSE,161,0.0,1.0,77,0.00,,,0.04,weatherlink.com 1.10,2013-04-17 13:25:00,
2013-04-17 09:40:00,68.0,61.0,30.30,SSW,200,0.0,2.0,78,0.00,,,0.04,weatherlink.com 1.10,2013-04-17 13:40:00,
2013-04-17 09:56:00,68.9,59.0,30.29,ENE,73,0.0,4.0,70,0.00,,,0.04,weatherlink.com 1.10,2013-04-17 13:56:00,
2013-04-17 10:11:00,68.7,59.0,30.29,ENE,78,4.0,6.0,72,0.00,,,0.04,weatherlink.com 1.10,2013-04-17 14:11:00,
2013-04-17 10:26:00,70.0,59.0,30.28,ESE,117,1.0,6.0,69,0.00,,,0.04,weatherlink.com 1.10,2013-04-17 14:26:00,
2013-04-17 10:41:00,72.0,60.0,30.27,SSE,165,1.0,5.0,65,0.00,,,0.04,weatherlink.com 1.10,2013-04-17 14:41:00,
2013-04-17 10:56:00,72.6,61.0,30.26,SE,128,3.0,5.0,68,0.00,,,0.04,weatherlink.com 1.10,2013-04-17 14:56:00,
2013-04-17 11:26:00,73.8,60.0,30.26,SSE,148,2.0,6.0,62,0.00,,,0.04,weatherlink.com 1.10,2013-04-17 15:26:00,
2013-04-17 11:56:00,74.8,59.0,30.25,SSE,162,1.0,6.0,58,0.00,,,0.04,weatherlink.com 1.10,2013-04-17 15:56:00,
2013-04-17 12:11:00,73.8,58.0,30.25,ENE,63,2.0,6.0,58,0.00,,,0.04,weatherlink.com 1.10,2013-04-17 16:11:00,
2013-04-17 12:26:00,73.7,58.0,30.25,South,191,1.0,5.0,59,0.00,,,0.04,weatherlink.com 1.10,2013-04-17 16:26:00,
2013-04-17 13:11:00,72.3,61.0,30.23,East,85,3.0,9.0,68,0.00,,,0.04,weatherlink.com 1.10,2013-04-17 17:11:00,
2013-04-17 13:26:00,71.9,61.0,30.22,SSW,193,1.0,7.0,69,0.00,,,0.04,weatherlink.com 1.10,2013-04-17 17:26:00,
2013-04-17 13:41:00,71.3,61.0,30.21,SE,132,2.0,5.0,70,0.00,,,0.04,weatherlink.com 1.10,2013-04-17 17:41:00,
2013-04-17 13:56:00,72.7,61.0,30.19,North,360,2.0,8.0,66,0.00,,,0.04,weatherlink.com 1.10,2013-04-17 17:56:00,
2013-04-17 14:11:00,72.6,61.0,30.19,ESE,106,6.0,10.0,67,0.00,,,0.04,weatherlink.com 1.10,2013-04-17 18:11:00,
2013-04-17 14:41:00,69.6,61.0,30.20,SSW,197,2.0,9.0,75,0.01,,,0.05,weatherlink.com 1.10,2013-04-17 18:41:00,
2013-04-17 14:56:00,67.8,61.0,30.21,SE,138,3.0,6.0,80,0.01,,,0.05,weatherlink.com 1.10,2013-04-17 18:56:00,
2013-04-17 15:11:00,66.1,61.0,30.20,ESE,118,7.0,8.0,84,0.02,,,0.06,weatherlink.com 1.10,2013-04-17 19:11:00,
2013-04-17 15:26:00,64.2,60.0,30.22,NNW,343,1.0,6.0,85,0.03,,,0.07,weatherlink.com 1.10,2013-04-17 19:26:00,
2013-04-17 15:41:00,61.2,58.0,30.24,NW,309,1.0,12.0,90,0.33,,,0.38,weatherlink.com 1.10,2013-04-17 19:41:00,
2013-04-17 15:56:00,59.2,58.0,30.25,NNE,19,0.0,3.0,95,0.85,,,0.90,weatherlink.com 1.10,2013-04-17 19:56:00,
2013-04-17 16:11:00,58.8,58.0,30.25,SSW,209,3.0,3.0,96,1.13,,,1.19,weatherlink.com 1.10,2013-04-17 20:11:00,
2013-04-17 16:26:00,58.8,58.0,30.24,SSW,192,0.0,0.0,96,1.21,,,1.28,weatherlink.com 1.10,2013-04-17 20:26:00,
2013-04-17 16:56:00,59.1,58.0,30.23,SSW,207,0.0,0.0,97,0.39,,,1.29,weatherlink.com 1.10,2013-04-17 20:56:00,
2013-04-17 17:11:00,59.3,59.0,30.22,SSW,207,0.0,0.0,97,0.11,,,1.30,weatherlink.com 1.10,2013-04-17 21:11:00,
2013-04-17 17:26:00,59.9,59.0,30.22,SSW,210,0.0,1.0,97,0.02,,,1.30,weatherlink.com 1.10,2013-04-17 21:26:00,
2013-04-17 17:41:00,59.8,59.0,30.21,SSW,210,0.0,1.0,97,0.01,,,1.30,weatherlink.com 1.10,2013-04-17 21:41:00,
2013-04-17 17:56:00,59.7,59.0,30.22,SW,231,0.0,1.0,96,0.01,,,1.30,weatherlink.com 1.10,2013-04-17 21:56:00,
2013-04-17 18:11:00,59.6,59.0,30.22,SW,231,0.0,0.0,97,0.00,,,1.30,weatherlink.com 1.10,2013-04-17 22:11:00,
2013-04-17 18:26:00,59.3,59.0,30.22,SSW,198,0.0,2.0,97,0.00,,,1.30,weatherlink.com 1.10,2013-04-17 22:26:00,
2013-04-17 18:41:00,59.0,58.0,30.22,SSW,200,0.0,1.0,97,0.00,,,1.30,weatherlink.com 1.10,2013-04-17 22:41:00,
2013-04-17 18:56:00,59.1,59.0,30.22,SSW,200,0.0,0.0,98,0.00,,,1.30,weatherlink.com 1.10,2013-04-17 22:56:00,
2013-04-17 19:11:00,59.0,59.0,30.23,ESE,118,0.0,0.0,98,0.00,,,1.30,weatherlink.com 1.10,2013-04-17 23:11:00,
2013-04-17 19:26:00,58.9,58.0,30.21,North,356,1.0,6.0,98,0.00,,,1.30,weatherlink.com 1.10,2013-04-17 23:26:00,
2013-04-17 19:41:00,58.7,58.0,30.21,NW,305,0.0,3.0,98,0.00,,,1.30,weatherlink.com 1.10,2013-04-17 23:41:00,
2013-04-17 19:56:00,58.3,58.0,30.21,NE,41,2.0,2.0,97,0.00,,,1.30,weatherlink.com 1.10,2013-04-17 23:56:00,
2013-04-17 20:11:00,58.1,58.0,30.21,WNW,295,0.0,4.0,98,0.00,,,1.30,weatherlink.com 1.10,2013-04-18 00:11:00,
2013-04-17 20:26:00,57.9,57.0,30.21,NNW,336,0.0,2.0,98,0.00,,,1.30,weatherlink.com 1.10,2013-04-18 00:26:00,
2013-04-17 20:41:00,57.7,57.0,30.21,NE,49,0.0,1.0,98,0.00,,,1.30,weatherlink.com 1.10,2013-04-18 00:41:00,
2013-04-17 20:56:00,57.5,57.0,30.21,WSW,246,0.0,1.0,98,0.00,,,1.30,weatherlink.com 1.10,2013-04-18 00:56:00,
2013-04-17 21:11:00,57.4,57.0,30.21,WSW,249,0.0,1.0,98,0.00,,,1.30,weatherlink.com 1.10,2013-04-18 01:11:00,
2013-04-17 21:26:00,57.2,57.0,30.20,WSW,249,0.0,1.0,98,0.00,,,1.30,weatherlink.com 1.10,2013-04-18 01:26:00,
2013-04-17 21:42:00,57.0,57.0,30.20,WSW,249,0.0,0.0,98,0.00,,,1.30,weatherlink.com 1.10,2013-04-18 01:42:00,
2013-04-17 21:57:00,56.9,56.0,30.20,WSW,256,0.0,1.0,98,0.00,,,1.30,weatherlink.com 1.10,2013-04-18 01:57:00,
2013-04-17 22:12:00,56.7,56.0,30.20,WSW,256,0.0,0.0,98,0.00,,,1.30,weatherlink.com 1.10,2013-04-18 02:12:00,
2013-04-17 22:42:00,56.3,56.0,30.20,SSW,212,0.0,1.0,99,0.00,,,1.30,weatherlink.com 1.10,2013-04-18 02:42:00,
2013-04-17 22:57:00,56.2,56.0,30.20,SSW,212,0.0,1.0,99,0.00,,,1.30,weatherlink.com 1.10,2013-04-18 02:57:00,
2013-04-17 23:12:00,56.2,56.0,30.19,SSW,208,0.0,0.0,99,0.00,,,1.30,weatherlink.com 1.10,2013-04-18 03:12:00,
2013-04-17 23:27:00,56.0,56.0,30.19,SE,146,0.0,0.0,99,0.00,,,1.30,weatherlink.com 1.10,2013-04-18 03:27:00,
2013-04-17 23:42:00,56.0,56.0,30.19,SE,146,0.0,1.0,99,0.00,,,1.30,weatherlink.com 1.10,2013-04-18 03:42:00,
2013-04-17 23:57:00,55.9,56.0,30.18,SE,146,0.0,0.0,99,0.00,,,1.30,weatherlink.com 1.10,2013-04-18 03:57:00,